Location: Harwich
(41.7160°N, 69.9939°W)
Time: 08:36:00
(UTC+01:00)

X-37B - Pass Details

Date: 15 December 2022
Orbit: 277 x 277 km, 45.0° (Epoch: 01 November)

Event Time Altitude Azimuth Distance (km) Brightness Sun altitude
Rises 23:02:38 0° 287° (WNW) 1,916 5.0 -9.5°
Reaches altitude 10° 23:04:37 10° 296° (WNW) 1,102 3.5 -9.9°
Maximum altitude 23:06:57 38° 8° (N) 438 0.6 -10.3°
Enters shadow 23:08:18 20° 68° (ENE) 732 1.3 -10.5°
